Location: Birkenwerder
(52.6919°N, 13.2774°E)
Time: 23:59:44
(UTC+00:00)

Cosmos 1570 Rocket - Pass Details

Date: 04 October 2020
Orbit: 763 x 788 km, 74.1° (Epoch: 24 October)

Event Time Altitude Azimuth Distance (km) Brightness Sun altitude
Exits shadow 00:36:15 21° 71° (ENE) 1,736 6.2 -37.5°
Drops below altitude 10° 00:38:46 10° 46° (NE) 2,362 7.2 -37.3°
Sets 00:41:34 0° 34° (NNE) 3,296 8.3 -37.1°
